EW7119 Weather Reports


time (UTC)temp
C
wind
direction
speed
KPH
gust
KPH
rain 1hr
cm
rain 24hr
cm
rain mn
cm
humidity
%
barometer
mb
20260505230116 2 275 3.2 8.0 0.00 0.00 0.00 84 1000.3
20260505224609 2 325 3.2 19.3 0.00 0.00 0.00 82 999.8
20260505223118 2 275 6.4 22.5 0.00 0.00 0.00 83 999.5
20260505221618 2 170 6.4 14.5 0.00 0.00 0.00 84 999.4
20260505220147 2 145 4.8 14.5 0.00 0.00 0.00 84 999.5
20260505214616 1 163 4.8 17.7 0.00 0.00 0.00 88 999.6
20260505213054 1 150 6.4 14.5 0.00 0.00 0.00 90 999.9
20260505211611 0 160 3.2 12.9 0.00 0.00 0.00 91 1000.1
20260505204601 1 163 6.4 14.5 0.00 0.00 0.00 85 1000.2
20260505203104 2 159 3.2 11.3 0.00 0.00 0.00 83 1000.3
20260505201615 2 244 1.6 11.3 0.00 0.00 0.00 82 999.9
20260505200108 2 210 3.2 17.7 0.00 0.00 0.00 82 999.9
20260505194609 2 155 4.8 16.1 0.00 0.00 0.00 85 1000.0
20260505193122 2 196 6.4 12.9 0.00 0.00 0.00 83 1000.1
20260505191628 2 254 1.6 14.5 0.00 0.00 0.00 86 1000.1
20260505190013 2 192 6.4 14.5 0.00 0.00 0.00 85 999.8
20260505184528 2 185 8.0 17.7 0.00 0.00 0.00 87 1000.0
20260505183102 1 163 6.4 16.1 0.00 0.00 0.00 90 1000.0
20260505181505 1 196 8.0 16.1 0.00 0.00 0.00 91 999.9
20260505180020 1 184 11.3 19.3 0.00 0.00 0.00 91 1000.1
20260505174507 1 208 8.0 22.5 0.00 0.00 0.00 90 1000.0
20260505173022 1 166 6.4 14.5 0.00 0.00 0.00 90 1000.0
20260505171536 1 211 6.4 14.5 0.00 0.00 0.00 90 1000.2
20260505170044 1 128 9.7 14.5 0.00 0.00 0.00 90 1000.4
20260505164547 1 180 8.0 14.5 0.00 0.00 0.00 91 1000.3
20260505163108 1 150 6.4 14.5 0.00 0.00 0.00 91 1000.4
20260505161623 1 138 4.8 16.1 0.00 0.00 0.00 90 1000.4
20260505160112 1 201 6.4 16.1 0.00 0.00 0.00 90 1000.4
20260505153052 1 144 4.8 16.1 0.00 0.00 0.00 90 1000.4
20260505151553 1 148 9.7 14.5 0.00 0.00 0.00 88 1000.3
20260505150105 1 146 4.8 9.7 0.00 0.00 0.00 87 1000.3
20260505124549 1 173 0.0 1.6 0.00 0.00 0.00 93 999.9
20260505123046 1 173 0.0 8.0 0.00 0.00 0.00 93 999.7
20260505121551 1 175 0.0 0.0 0.00 0.00 0.00 92 999.7
20260505120114 1 175 0.0 0.0 0.00 0.00 0.00 92 999.5
20260505114614 1 175 0.0 0.0 0.00 0.00 0.00 92 999.9
20260505113120 1 175 0.0 0.0 0.00 0.00 0.00 92 999.9
20260505111557 2 175 0.0 0.0 0.00 0.00 0.00 92 999.9
20260505110110 2 175 0.0 0.0 0.00 0.00 0.00 92 999.8
20260505101525 1 153 3.2 9.7 0.00 0.00 0.00 91 999.6
20260505100007 1 139 1.6 8.0 0.00 0.00 0.00 91 999.8
20260505094542 1 123 4.8 11.3 0.00 0.00 0.00 91 999.9
20260505093051 1 188 1.6 4.8 0.00 0.00 0.00 89 1000.0
20260505091614 1 315 0.0 0.0 0.00 0.00 0.00 88 999.7
20260505090057 1 315 0.0 0.0 0.00 0.00 0.00 88 999.8
20260505084548 1 315 0.0 0.0 0.00 0.00 0.00 88 999.7
20260505083057 1 315 0.0 0.0 0.00 0.00 0.00 87 1000.0
20260505081606 2 315 0.0 0.0 0.00 0.00 0.00 87 1000.3
20260505080112 2 315 0.0 0.0 0.00 0.00 0.00 88 1000.3
20260505074617 2 306 0.0 0.0 0.00 0.00 0.00 89 1000.4
20260505073124 2 306 0.0 0.0 0.00 0.00 0.00 89 1000.5
20260505071550 2 306 0.0 0.0 0.00 0.00 0.00 88 1000.8
20260505070040 2 306 0.0 0.0 0.00 0.00 0.00 87 1000.5
20260505064619 2 306 0.0 0.0 0.00 0.00 0.00 87 1000.6
20260505063115 3 306 1.6 6.4 0.00 0.00 0.00 85 1000.5
20260505061620 3 169 0.0 4.8 0.00 0.00 0.00 83 1000.3
20260505060119 3 325 0.0 0.0 0.00 0.00 0.00 84 1000.5
20260505054612 3 325 0.0 0.0 0.00 0.00 0.00 83 1000.8
20260505053017 3 325 0.0 0.0 0.00 0.00 0.00 81 1000.8
20260505051521 4 325 0.0 0.0 0.00 0.00 0.00 77 1000.7
20260505041633 5 132 3.2 4.8 0.00 0.00 0.00 70 1000.2
20260505040123 5 132 0.0 6.4 0.00 0.00 0.00 68 999.9
20260505034559 5 132 3.2 6.4 0.00 0.00 0.00 70 1000.0
20260505033109 3 84 3.2 9.7 0.00 0.00 0.00 78 999.7
20260505031617 3 49 1.6 9.7 0.00 0.00 0.00 81 999.5
20260505030113 3 111 0.0 4.8 0.00 0.00 0.00 81 999.6
20260505024607 4 111 0.0 1.6 0.00 0.00 0.00 77 999.3
20260505023109 4 111 0.0 4.8 0.00 0.00 0.00 74 998.9
20260505021611 3 5 0.0 8.0 0.00 0.00 0.00 78 998.9
20260505020125 3 89 4.8 14.5 0.00 0.00 0.00 81 998.8
20260505014546 3 26 6.4 14.5 0.00 0.00 0.00 82 999.0
20260505013050 3 38 3.2 16.1 0.00 0.00 0.00 81 998.3
20260505011602 5 16 4.8 19.3 0.00 0.00 0.00 74 998.5
20260505010059 7 318 9.7 22.5 0.00 0.00 0.00 59 998.3
20260505004504 10 274 4.8 16.1 0.00 0.00 0.00 44 997.6
20260505003006 10 277 3.2 12.9 0.00 0.00 0.00 45 997.7
20260505001609 10 253 3.2 6.4 0.00 0.00 0.00 47 997.6
20260505000117 10 191 1.6 4.8 0.00 0.00 0.00 50 997.8
20260504234608 10 254 1.6 8.0 0.00 0.00 0.00 48 997.9
20260504233118 10 150 3.2 14.5 0.00 0.00 0.00 50 997.9
20260504231620 10 188 3.2 12.9 0.00 0.00 0.00 47 998.1